FW9915 Weather Reports


Display with metric or nautical units.
time (UTC)temp
F
wind
direction
speed
MPH
gust
MPH
rain 1hr
in
rain 24hr
in
rain mn
in
humidity
%
barometer
mb
20260505124525 57 145 5.0 11.0 0.00 0.00 0.00 74 1015.5
20260505123525 57 122 6.0 9.0 0.00 0.00 0.00 74 1015.6
20260505122524 57 137 6.0 11.0 0.00 0.00 0.00 74 1015.6
20260505121537 57 152 6.0 9.0 0.00 0.00 0.00 71 1015.7
20260505120524 57 146 7.0 15.0 0.00 0.00 0.00 72 1015.7
20260505115524 57 139 6.0 11.0 0.00 0.00 0.00 74 1015.7
20260505114524 57 138 6.0 9.0 0.00 0.00 0.00 73 1015.7
20260505113525 58 146 5.0 11.0 0.00 0.00 0.00 72 1015.7
20260505112536 58 143 6.0 9.0 0.00 0.00 0.00 69 1015.7
20260505111525 58 137 5.0 11.0 0.00 0.00 0.00 69 1015.7
20260505110524 59 155 7.0 11.0 0.00 0.00 0.00 66 1015.6
20260505101524 60 157 5.0 9.0 0.00 0.00 0.00 59 1015.5
20260505100536 60 146 5.0 9.0 0.00 0.00 0.00 57 1015.6
20260505095525 60 125 8.0 15.0 0.00 0.00 0.00 57 1015.5
20260505094525 60 126 7.0 15.0 0.00 0.00 0.00 55 1015.6
20260505093537 62 136 6.0 15.0 0.00 0.00 0.00 52 1015.6
20260505092524 61 146 6.0 9.0 0.00 0.00 0.00 53 1015.6
20260505091524 61 139 6.0 9.0 0.00 0.00 0.00 55 1015.7
20260505090525 62 118 3.0 5.0 0.00 0.00 0.00 52 1015.7
20260505085525 64 60 6.0 11.0 0.00 0.00 0.00 38 1015.8
20260505084536 64 72 8.0 11.0 0.00 0.00 0.00 39 1015.8
20260505083525 64 41 6.0 9.0 0.00 0.00 0.00 41 1015.8
20260505082548 64 35 5.0 9.0 0.00 0.00 0.00 40 1015.8
20260505081545 64 29 6.0 9.0 0.00 0.00 0.00 40 1015.7
20260505080525 64 27 6.0 9.0 0.00 0.00 0.00 44 1015.8
20260505075525 63 20 7.0 11.0 0.00 0.00 0.00 41 1015.8
20260505074525 62 36 7.0 11.0 0.00 0.00 0.00 42 1015.8
20260505073549 63 20 6.0 9.0 0.00 0.00 0.00 44 1015.8
20260505072525 62 25 6.0 9.0 0.00 0.00 0.00 44 1015.8
20260505071525 61 31 7.0 9.0 0.00 0.00 0.00 46 1015.8
20260505070524 61 42 7.0 11.0 0.00 0.00 0.00 46 1015.8
20260505065525 61 27 7.0 9.0 0.00 0.00 0.00 44 1015.7
20260505064545 61 20 7.0 9.0 0.00 0.00 0.00 46 1015.6
20260505063525 61 23 6.0 11.0 0.00 0.00 0.00 47 1015.6
20260505062525 61 20 7.0 9.0 0.00 0.00 0.00 46 1015.5
20260505061525 61 357 6.0 7.0 0.00 0.00 0.00 47 1015.4
20260505060545 60 15 6.0 9.0 0.00 0.00 0.00 47 1015.4
20260505055524 59 19 6.0 9.0 0.00 0.00 0.00 49 1015.4
20260505054524 58 25 6.0 9.0 0.00 0.00 0.00 52 1015.3
20260505053537 58 18 7.0 9.0 0.00 0.00 0.00 54 1015.2
20260505052524 59 24 6.0 9.0 0.00 0.00 0.00 51 1015.2
20260505051545 58 328 4.0 7.0 0.00 0.00 0.00 53 1015.0
20260505050537 57 318 4.0 7.0 0.00 0.00 0.00 54 1015.0
20260505041549 51 319 5.0 7.0 0.00 0.00 0.00 57 1014.7
20260505040548 50 323 4.0 7.0 0.00 0.00 0.00 59 1014.6
20260505035525 49 317 4.0 7.0 0.00 0.00 0.00 58 1014.5
20260505034525 49 315 5.0 7.0 0.00 0.00 0.00 59 1014.5
20260505033525 48 322 5.0 7.0 0.00 0.00 0.00 58 1014.4
20260505032525 47 313 4.0 7.0 0.00 0.00 0.00 59 1014.4
20260505031525 47 316 4.0 7.0 0.00 0.00 0.00 60 1014.4
20260505030524 46 328 4.0 4.0 0.00 0.00 0.00 61 1014.3
20260505025525 46 333 4.0 7.0 0.00 0.00 0.00 61 1014.3
20260505024548 46 321 4.0 7.0 0.00 0.00 0.00 61 1014.3
20260505023545 46 328 3.0 7.0 0.00 0.00 0.00 61 1014.2
20260505022545 46 331 3.0 4.0 0.00 0.00 0.00 61 1014.2
20260505021525 45 318 4.0 7.0 0.00 0.00 0.00 61 1014.2
20260505020545 45 332 4.0 4.0 0.00 0.00 0.00 62 1014.1
20260505015545 45 336 2.0 4.0 0.00 0.00 0.00 63 1014.1
20260505014525 45 330 2.0 4.0 0.00 0.00 0.00 63 1014.1
20260505013524 45 338 2.0 4.0 0.00 0.00 0.00 64 1014.2
20260505012525 45 320 3.0 4.0 0.00 0.00 0.00 62 1014.2
20260505011524 46 321 2.0 4.0 0.00 0.00 0.00 61 1014.2
20260505010525 46 317 3.0 4.0 0.00 0.00 0.00 60 1014.1
20260505005524 46 318 3.0 4.0 0.00 0.00 0.00 60 1014.1
20260505004524 46 319 3.0 4.0 0.00 0.00 0.00 61 1014.1
20260505003536 46 322 3.0 4.0 0.00 0.00 0.00 62 1014.1
20260505002525 47 316 3.0 4.0 0.00 0.00 0.00 60 1014.1
20260505001524 46 316 3.0 7.0 0.00 0.00 0.00 62 1014.2
20260505000524 46 330 3.0 4.0 0.00 0.00 0.00 62 1014.1
20260504235525 47 321 3.0 7.0 0.00 0.00 0.00 61 1014.2
20260504234545 46 319 3.0 7.0 0.00 0.00 0.00 62 1014.3
20260504233525 47 313 4.0 7.0 0.00 0.00 0.00 61 1014.4
20260504232524 47 308 4.0 7.0 0.00 0.00 0.00 61 1014.4
20260504231525 47 310 3.0 7.0 0.00 0.00 0.00 61 1014.4
20260504230524 47 309 3.0 7.0 0.00 0.00 0.00 59 1014.5
20260504225525 48 316 3.0 7.0 0.00 0.00 0.00 58 1014.6
20260504224525 48 321 3.0 7.0 0.00 0.00 0.00 58 1014.6
20260504223524 48 314 3.0 4.0 0.00 0.00 0.00 58 1014.7
20260504222525 49 316 3.0 7.0 0.00 0.00 0.00 57 1014.7
20260504221525 49 318 4.0 7.0 0.00 0.00 0.00 57 1014.8
20260504220537 48 312 4.0 7.0 0.00 0.00 0.00 58 1014.9
20260504215524 49 316 3.0 7.0 0.00 0.00 0.00 57 1014.9
20260504214536 49 315 4.0 7.0 0.00 0.00 0.00 57 1014.9
20260504213536 48 316 4.0 7.0 0.00 0.00 0.00 58 1014.9
20260504212525 48 317 4.0 7.0 0.00 0.00 0.00 59 1014.9
20260504211525 48 319 4.0 7.0 0.00 0.00 0.00 58 1014.9
20260504210525 49 318 4.0 7.0 0.00 0.00 0.00 57 1014.9
20260504205601 49 325 5.0 7.0 0.00 0.00 0.00 57 1014.9
20260504204525 49 314 5.0 7.0 0.00 0.00 0.00 57 1015.0
20260504203536 49 319 4.0 7.0 0.00 0.00 0.00 58 1015.0
20260504202548 49 315 4.0 7.0 0.00 0.00 0.00 58 1015.1
20260504201609 49 314 3.0 4.0 0.00 0.00 0.00 59 1015.1
20260504200525 49 316 3.0 4.0 0.00 0.00 0.00 59 1015.1
20260504195524 49 326 3.0 4.0 0.00 0.00 0.00 59 1015.1
20260504194601 49 338 2.0 4.0 0.00 0.00 0.00 59 1015.1
20260504193525 49 311 3.0 4.0 0.00 0.00 0.00 59 1015.1
20260504192605 49 322 4.0 7.0 0.00 0.00 0.00 59 1015.1
20260504191526 49 319 4.0 7.0 0.00 0.00 0.00 60 1015.1
20260504190524 49 315 3.0 4.0 0.00 0.00 0.00 60 1015.1
20260504185537 49 331 3.0 4.0 0.00 0.00 0.00 61 1015.0
20260504184525 48 332 2.0 4.0 0.00 0.00 0.00 62 1015.0
20260504183524 48 338 2.0 4.0 0.00 0.00 0.00 61 1015.0
20260504182524 49 338 2.0 4.0 0.00 0.00 0.00 60 1015.0
20260504181524 50 359 3.0 4.0 0.00 0.00 0.00 59 1014.8
20260504180525 50 338 4.0 4.0 0.00 0.00 0.00 59 1014.8
20260504175537 50 338 3.0 4.0 0.00 0.00 0.00 59 1014.7
20260504174524 51 338 4.0 7.0 0.00 0.00 0.00 59 1014.6
20260504173545 50 338 4.0 4.0 0.00 0.00 0.00 61 1014.5
20260504172537 50 0 3.0 4.0 0.00 0.00 0.00 63 1014.5
20260504171537 51 0 4.0 4.0 0.00 0.00 0.00 63 1014.5
20260504170525 52 12 3.0 4.0 0.00 0.00 0.00 63 1014.5
20260504150524 55 64 9.0 15.0 0.00 0.00 0.00 51 1014.1
20260504140537 59 72 8.0 11.0 0.00 0.00 0.00 50 1013.7